This is the latest recevied weather packets stored in our database for station/object NK2J. If no packets are shown the sender has not sent any weather packets the latest 10 day(s).
| Time | Temp. | Humidity | Pressure | Rain* | Wind** | Luminosity | Snow |
|---|---|---|---|---|---|---|---|
| 1777989714 | 17.22° C | 83% | 1013.7 hPa | 0 mm | - | 42 W/m² | - |
| 1777989410 | 17.22° C | 83% | 1013.6 hPa | 0 mm | - | 36 W/m² | - |
| 1777989106 | 17.22° C | 83% | 1013.6 hPa | 0 mm | - | 38 W/m² | - |
| 1777988802 | 17.22° C | 84% | 1013.6 hPa | 0 mm | - | 37 W/m² | - |
| 1777988500 | 17.22° C | 84% | 1013.7 hPa | 0 mm | - | 23 W/m² | - |
| 1777988197 | 17.22° C | 84% | 1013.7 hPa | 0 mm | - | 13 W/m² | - |
| 1777987893 | 17.22° C | 85% | 1013.7 hPa | 0 mm | - | 9 W/m² | - |
| 1777987589 | 17.22° C | 84% | 1013.7 hPa | 0 mm | - | 6 W/m² | - |
| 1777987287 | 17.22° C | 84% | 1013.5 hPa | 0 mm | - | 7 W/m² | - |
| 1777986983 | 17.22° C | 84% | 1013.4 hPa | 0 mm | - | 10 W/m² | - |
| 1777986681 | 16.67° C | 84% | 1013.5 hPa | 0 mm | - | 11 W/m² | - |
| 1777986379 | 16.67° C | 84% | 1013.3 hPa | 0 mm | - | 9 W/m² | - |
| 1777986078 | 16.67° C | 84% | 1013.3 hPa | 0 mm | - | 9 W/m² | - |
| 1777985773 | 16.67° C | 84% | 1013.1 hPa | 0 mm | - | 10 W/m² | - |
| 1777985471 | 16.67° C | 84% | 1013 hPa | 0 mm | - | 6 W/m² | - |
| 1777985167 | 16.67° C | 85% | 1013.1 hPa | 0 mm | - | 3 W/m² | - |
| 1777984863 | 16.67° C | 85% | 1013 hPa | 0 mm | - | 1 W/m² | - |
| 1777984559 | 16.67° C | 85% | 1012.9 hPa | 0 mm | - | 1 W/m² | - |
| 1777984256 | 16.67° C | 85% | 1012.9 hPa | 0 mm | - | 1 W/m² | - |
| 1777983953 | 16.67° C | 84% | 1012.7 hPa | 0 mm | - | 0 W/m² | - |
| 1777983650 | 16.67° C | 84% | 1013 hPa | 0 mm | - | 0 W/m² | - |
| 1777983346 | 16.67° C | 84% | 1013.2 hPa | 0 mm | - | 0 W/m² | - |
| 1777983043 | 16.67° C | 84% | 1012.9 hPa | 0 mm | - | 0 W/m² | - |
| 1777982740 | 16.67° C | 84% | 1013 hPa | 0 mm | - | 0 W/m² | - |
| 1777982435 | 16.67° C | 84% | 1012.7 hPa | 0 mm | - | 0 W/m² | - |
* Rain latest hour (hover to see other rain measurements)
** Current wind speed in m/s (hover to see current wind gust speed)